DW6723 Weather Reports


Display with metric or nautical units.
time (UTC)temp
F
wind
direction
speed
MPH
gust
MPH
rain 1hr
in
rain 24hr
in
rain mn
in
humidity
%
barometer
mb
20260901063018 65 254 2.0 4.0 0.00 0.00 0.00 85 1017.1
20260901061505 65 221 1.0 4.0 0.00 0.00 0.00 86 1017.1
20260901060005 65 256 0.0 3.0 0.00 0.00 0.00 87 1017.3
20260901054506 65 252 1.0 2.0 0.00 0.00 0.00 87 1017.3
20260901053002 65 285 0.0 2.0 0.00 0.00 0.00 86 1017.4
20260901051502 65 274 1.0 4.0 0.00 0.00 0.00 86 1017.2
20260901050001 65 239 2.0 4.0 0.00 0.00 0.00 86 1017.2
20260901044605 65 245 1.0 3.0 0.00 0.00 0.00 85 1017.4
20260901043043 65 232 0.0 2.0 0.00 0.00 0.00 85 1017.4
20260901041541 65 257 0.0 4.0 0.00 0.00 0.00 84 1017.6
20260901040029 65 232 1.0 4.0 0.00 0.00 0.00 84 1017.4
20260901034537 64 242 0.0 0.0 0.00 0.00 0.00 84 1017.5
20260901033028 64 261 0.0 0.0 0.00 0.00 0.00 83 1017.5
20260901031535 64 221 0.0 2.0 0.00 0.00 0.00 83 1017.6
20260901030026 64 221 0.0 2.0 0.00 0.00 0.00 82 1017.5
20260901024526 64 221 0.0 2.0 0.00 0.00 0.00 82 1017.5
20260901023027 64 269 0.0 3.0 0.00 0.00 0.00 81 1017.5
20260901021527 64 254 1.0 3.0 0.00 0.00 0.00 80 1017.5
20260901020006 64 228 1.0 3.0 0.00 0.00 0.00 79 1017.5
20260901014505 65 256 1.0 2.0 0.00 0.00 0.00 78 1017.6
20260901013004 65 243 0.0 2.0 0.00 0.00 0.00 77 1017.6
20260901011505 65 232 1.0 3.0 0.00 0.00 0.00 76 1017.7
20260901010002 65 223 1.0 6.0 0.00 0.00 0.00 76 1017.6
20260901004600 65 217 0.0 4.0 0.00 0.00 0.00 74 1017.7
20260901004502 65 220 1.0 4.0 0.00 0.00 0.00 74 1017.7
20260901003058 66 204 1.0 3.0 0.00 0.00 0.00 73 1017.7
20260901001600 66 179 2.0 6.0 0.00 0.00 0.00 72 1017.5
20260901000045 66 202 2.0 8.0 0.00 0.00 0.00 71 1017.5
20260831234550 67 197 3.0 5.0 0.00 0.00 0.00 69 1017.6
20260831233046 67 186 5.0 8.0 0.00 0.00 0.00 68 1017.8
20260831231538 68 214 4.0 8.0 0.00 0.00 0.00 66 1017.8
20260831230039 68 171 3.0 9.0 0.00 0.00 0.00 65 1017.9
20260831224535 69 202 2.0 7.0 0.00 0.00 0.00 64 1018.0
20260831223030 70 186 3.0 10.0 0.00 0.00 0.00 64 1018.0
20260831221529 71 189 6.0 10.0 0.00 0.00 0.00 64 1018.0
20260831220012 71 173 5.0 10.0 0.00 0.00 0.00 64 1017.9
20260831214511 71 175 6.0 13.0 0.00 0.00 0.00 63 1017.9
20260831213102 71 150 5.0 14.0 0.00 0.00 0.00 64 1018.0
20260831211558 72 171 10.0 16.0 0.00 0.00 0.00 63 1017.9
20260831210055 73 167 5.0 14.0 0.00 0.00 0.00 63 1018.0
20260831204556 71 170 6.0 11.0 0.00 0.00 0.00 67 1018.1
20260831203059 70 360 6.0 13.0 0.00 0.00 0.00 70 1018.2
20260831201555 70 139 8.0 14.0 0.00 0.00 0.00 69 1018.2
20260831200046 70 360 7.0 13.0 0.00 0.00 0.00 69 1018.2
20260831194546 69 118 10.0 18.0 0.00 0.00 0.00 70 1018.2
20260831193114 70 117 9.0 14.0 0.00 0.00 0.00 69 1018.2
20260831191534 69 111 8.0 12.0 0.00 0.00 0.00 69 1018.6
20260831190039 69 138 8.0 14.0 0.00 0.00 0.00 68 1018.7
20260831184532 69 139 7.0 16.0 0.00 0.00 0.00 67 1019.1
20260831183032 69 130 9.0 14.0 0.00 0.00 0.00 65 1019.1
20260831181545 69 360 10.0 13.0 0.00 0.00 0.00 63 1019.2
20260831180037 69 141 7.0 14.0 0.00 0.00 0.00 58 1019.3
20260831174530 69 103 10.0 14.0 0.00 0.00 0.00 60 1019.3
20260831173030 69 129 6.0 10.0 0.00 0.00 0.00 59 1019.4
20260831171526 68 360 8.0 11.0 0.00 0.00 0.00 62 1019.6
20260831170028 68 122 6.0 13.0 0.00 0.00 0.00 61 1019.8
20260831164525 67 117 7.0 13.0 0.00 0.00 0.00 64 1019.9
20260831163027 67 114 9.0 12.0 0.00 0.00 0.00 62 1020.0
20260831161537 67 122 9.0 12.0 0.00 0.00 0.00 61 1020.2
20260831160024 67 121 8.0 12.0 0.00 0.00 0.00 62 1020.4
20260831154512 67 127 7.0 12.0 0.00 0.00 0.00 58 1020.5
20260831153012 68 136 7.0 10.0 0.00 0.00 0.00 60 1020.5
20260831151511 68 167 5.0 9.0 0.00 0.00 0.00 57 1020.6
20260831150012 68 149 4.0 9.0 0.00 0.00 0.00 58 1020.6
20260831144510 68 126 6.0 11.0 0.00 0.00 0.00 61 1020.5
20260831143010 68 164 7.0 10.0 0.00 0.00 0.00 58 1020.5
20260831141509 68 114 7.0 10.0 0.00 0.00 0.00 53 1020.5
20260831140008 68 121 8.0 10.0 0.00 0.00 0.00 55 1020.5
20260831134559 68 59 3.0 9.0 0.00 0.00 0.00 56 1020.5
20260831133050 68 84 4.0 8.0 0.00 0.00 0.00 56 1020.5
20260831131550 67 85 4.0 8.0 0.00 0.00 0.00 58 1020.3
20260831130039 67 85 5.0 9.0 0.00 0.00 0.00 62 1020.1
20260831124509 66 53 2.0 7.0 0.00 0.00 0.00 67 1020.1
20260831123012 65 39 6.0 9.0 0.00 0.00 0.00 69 1019.8
20260831121556 65 20 3.0 7.0 0.00 0.00 0.00 72 1019.8
20260831120055 64 63 4.0 6.0 0.00 0.00 0.00 74 1019.8
20260831114554 64 44 2.0 5.0 0.00 0.00 0.00 77 1019.6
20260831113056 64 76 1.0 2.0 0.00 0.00 0.00 80 1019.8
20260831111555 63 19 2.0 4.0 0.00 0.00 0.00 81 1019.6
20260831110052 63 345 1.0 4.0 0.00 0.00 0.00 84 1019.8
20260831104551 62 312 1.0 3.0 0.00 0.00 0.00 86 1019.6
20260831103051 62 325 1.0 5.0 0.00 0.00 0.00 87 1019.4
20260831101529 62 355 1.0 4.0 0.00 0.00 0.00 89 1019.1
20260831100039 62 355 3.0 4.0 0.00 0.00 0.00 88 1019.0
20260831094525 62 346 4.0 7.0 0.00 0.00 0.00 88 1018.8
20260831093023 62 355 3.0 5.0 0.00 0.00 0.00 88 1018.7
20260831091548 63 350 3.0 5.0 0.00 0.00 0.00 89 1018.5
20260831090057 63 350 3.0 6.0 0.00 0.00 0.00 90 1018.4
20260831084534 63 9 4.0 5.0 0.00 0.00 0.00 90 1018.3
20260831083043 62 360 3.0 5.0 0.00 0.00 0.00 92 1018.3
20260831081532 62 321 3.0 4.0 0.00 0.00 0.00 92 1018.1
20260831080047 62 323 1.0 2.0 0.00 0.00 0.00 92 1018.0
20260831074530 62 342 2.0 3.0 0.00 0.00 0.00 92 1017.8
20260831073027 63 54 0.0 1.0 0.00 0.00 0.00 90 1017.6
20260831071540 64 273 0.0 2.0 0.00 0.00 0.00 89 1017.6
20260831070021 64 273 0.0 2.0 0.00 0.00 0.00 88 1017.5
20260831064508 65 273 0.0 2.0 0.00 0.00 0.00 87 1017.4